Location: Doverdale
(52.2833°N, 2.2000°W)
Time: 03:25:11
(UTC+00:00)

Cosmos 1553 Rocket - Pass Details

Date: 29 October 2020
Orbit: 940 x 1009 km, 82.9° (Epoch: 27 November)

Event Time Altitude Azimuth Distance (km) Brightness Sun altitude
Rises 17:42:49 0° 166° (SSE) 3,709 7.0 -9.4°
Reaches altitude 10° 17:45:26 10° 160° (SSE) 2,756 6.3 -9.8°
Maximum altitude 17:51:24 46° 90° (E) 1,310 4.3 -10.7°
Drops below altitude 10° 17:57:17 10° 20° (NNE) 2,729 6.1 -11.6°
Sets 17:59:53 0° 14° (NNE) 3,671 6.8 -12.0°
